sat.trackr.live / text

‹ back to catalog

STARLINK-3192

NORAD 49767 · 2021-115AV

PAYLOAD ACTIVE UNKNOWN

§ Identity

Operator
Country
US
Launch date
2021-12-02
Launch site
AFETR
Launch vehicle
Mass (kg)
RCS (m²)

Purposes: comms

External: N2YO · Heavens-Above · Gunter

§ Orbital elements

Epoch: 2026-09-09T22:14:12.109056Z

Period
93.85 min
Inclination
53.1621°
Eccentricity
0.0001273
Mean motion
15.34386767 rev/d
Perigee alt
461.9 km
Apogee alt
463.6 km
Semi-major
6,840.9 km
B*
2.0509e-5
RAAN
18.8283°
Arg perigee
77.1965°
Mean anomaly
282.9179°
Rev number
26,367

§ Raw data

STARLINK-31921 49767U 21115AV  26252.92652904  .00000316  00000+0  20509-4 0  99962 49767  53.1621  18.8283 0001273  77.1965 282.9179 15.34386767263673

JSON: /api/v1/satellites/49767 · /tle

For live sub-satellite position, see the globe view (requires WebGL).

§ Visibility from observer

Set your observer location to see the next 7 days of passes ≥ 10°. The values pass through the URL so the page stays shareable.

No JS? Fill the form by hand. The geolocation button needs JavaScript.